Language: 


Des rapports , des résumés tant et plus, au choix de chacun....


Données statistiques de la station
Quotidien Rapport Septembre 8, 2017 Unités:  Métrique    Anglais   les deux
« Précédent Jour
Suivant Jour »
Quotidien Hebdomadaire Mensuel Annuel Actuel
  Haut: Bas: Moyen:
Température: 17.1 °C 0.0 °C 15.4 °C
Pt de rosée: 17.0 °C 14.0 °C 15.2 °C
Humidité: 98 % 0 % 96 %
Vitesse du vent: 27.4 km/h 0.0 km/h 11.3 km/h
Rafales: 27.7 km/h - -
Vent:- - SW
Pression: 1011.1 hPa 0.0 hPa -
Précipitation: 9.1 mm    
Historical Graphs
 
 
Données statistiques pour Septembre 8, 2017
Heure Température Point de rosée Pression Vent Vitesse du vent Refales Humidité Pluie (taux horaire)
00:01 15.5 °C 14.0 °C 1011.1 hPa SW 9.0 km/h 17.7 km/h 92 % 0.0 mm
00:06 15.5 °C 14.0 °C 1011.1 hPa WSW 11.9 km/h 15.4 km/h 92 % 0.0 mm
00:11 15.4 °C 14.0 °C 1011.1 hPa WSW 10.1 km/h 13.7 km/h 93 % 0.0 mm
00:13 15.4 °C 14.0 °C 1011.1 hPa SW 12.6 km/h 13.0 km/h 92 % 0.0 mm
00:18 15.4 °C 14.0 °C 1011.1 hPa WSW 16.3 km/h 18.3 km/h 92 % 0.0 mm
00:23 15.4 °C 14.0 °C 1011.1 hPa WSW 17.2 km/h 20.9 km/h 94 % 0.0 mm
00:28 15.2 °C 15.0 °C 1011.1 hPa SW 10.5 km/h 20.9 km/h 95 % 0.3 mm
00:29 15.2 °C 15.0 °C 1011.1 hPa WSW 19.5 km/h 20.9 km/h 95 % 0.3 mm
00:35 15.1 °C 15.0 °C 1011.1 hPa WSW 14.0 km/h 19.5 km/h 96 % 0.3 mm
00:40 15.0 °C 15.0 °C 1011.1 hPa SW 10.1 km/h 19.5 km/h 96 % 0.3 mm
00:45 15.0 °C 15.0 °C 1010.0 hPa SSW 9.0 km/h 16.3 km/h 96 % 0.3 mm
00:55 14.9 °C 15.0 °C 1010.0 hPa SSW 16.6 km/h 16.9 km/h 97 % 0.3 mm
01:00 14.9 °C 15.0 °C 1010.0 hPa WSW 11.9 km/h 17.7 km/h 97 % 0.3 mm
01:05 14.9 °C 15.0 °C 1010.0 hPa SSW 11.9 km/h 17.7 km/h 97 % 0.3 mm
01:10 14.9 °C 15.0 °C 1010.0 hPa SW 10.5 km/h 16.9 km/h 98 % 0.3 mm
01:15 14.9 °C 15.0 °C 1010.0 hPa WSW 6.4 km/h 16.9 km/h 98 % 0.3 mm
01:20 14.9 °C 15.0 °C 1010.0 hPa Calm   13.0 km/h 98 % 0.3 mm
01:25 14.9 °C 15.0 °C 1010.0 hPa WSW 10.5 km/h 13.0 km/h 98 % 0.0 mm
01:30 14.9 °C 15.0 °C 1010.0 hPa SW 6.9 km/h 16.3 km/h 98 % 0.0 mm
01:35 14.9 °C 15.0 °C 1010.0 hPa WSW 14.0 km/h 16.3 km/h 98 % 0.0 mm
01:40 14.9 °C 15.0 °C 1010.0 hPa SSW 6.9 km/h 14.0 km/h 98 % 0.0 mm
01:45 14.9 °C 15.0 °C 1009.0 hPa SW 10.1 km/h 14.0 km/h 98 % 0.0 mm
01:50 14.9 °C 15.0 °C 1009.0 hPa SSW 7.2 km/h 15.4 km/h 98 % 0.0 mm
01:55 14.9 °C 15.0 °C 1009.0 hPa SSW 13.7 km/h 15.4 km/h 98 % 0.0 mm
02:00 14.9 °C 15.0 °C 1009.0 hPa SSW 7.9 km/h 13.7 km/h 98 % 0.3 mm
02:05 14.9 °C 15.0 °C 1009.0 hPa WSW 9.7 km/h 13.7 km/h 98 % 0.3 mm
02:10 14.9 °C 15.0 °C 1009.0 hPa WSW 6.9 km/h 13.0 km/h 98 % 0.3 mm
02:15 15.0 °C 15.0 °C 1009.0 hPa West 7.9 km/h 14.0 km/h 97 % 0.3 mm
02:20 15.0 °C 15.0 °C 1009.0 hPa West 10.5 km/h 14.0 km/h 97 % 0.3 mm
02:25 15.0 °C 15.0 °C 1009.0 hPa WSW 16.3 km/h 16.6 km/h 97 % 0.3 mm
02:30 15.0 °C 15.0 °C 1009.0 hPa SW 7.2 km/h 16.6 km/h 97 % 0.3 mm
02:35 15.0 °C 15.0 °C 1009.0 hPa SW 11.6 km/h 16.3 km/h 97 % 0.3 mm
02:41 15.0 °C 15.0 °C 1009.0 hPa SW 10.5 km/h 14.0 km/h 97 % 0.3 mm
02:46 15.0 °C 15.0 °C 1009.0 hPa SW 9.0 km/h 14.0 km/h 97 % 0.3 mm
02:51 15.0 °C 15.0 °C 1009.0 hPa WSW 12.2 km/h 14.0 km/h 97 % 0.3 mm
02:56 15.0 °C 15.0 °C 1009.0 hPa SW 13.7 km/h 14.3 km/h 97 % 0.0 mm
03:01 0.0 °C 15.0 °C 0.0 hPa Calm     0 % 0.0 mm
03:06 15.2 °C 15.0 °C 1009.0 hPa SW 10.5 km/h 14.0 km/h 96 % 0.0 mm
03:11 15.2 °C 15.0 °C 1009.0 hPa SSW 9.0 km/h 18.0 km/h 96 % 0.0 mm
03:16 15.2 °C 15.0 °C 1008.0 hPa WSW 16.9 km/h 18.0 km/h 96 % 0.0 mm
03:21 15.2 °C 15.0 °C 1008.0 hPa SSW 9.7 km/h 20.9 km/h 95 % 0.0 mm
03:26 15.0 °C 15.0 °C 1008.0 hPa WSW 13.0 km/h 20.9 km/h 96 % 0.0 mm
03:31 15.0 °C 15.0 °C 1008.0 hPa SW 12.2 km/h 18.0 km/h 96 % 0.0 mm
03:37 15.0 °C 15.0 °C 1008.0 hPa SW 9.7 km/h 19.5 km/h 96 % 0.0 mm
03:42 15.0 °C 15.0 °C 1008.0 hPa WSW 18.3 km/h 20.1 km/h 96 % 0.0 mm
03:47 15.0 °C 15.0 °C 1007.0 hPa SSW 14.0 km/h 20.1 km/h 96 % 0.0 mm
03:52 15.0 °C 15.0 °C 1007.0 hPa WSW 10.1 km/h 21.2 km/h 96 % 0.0 mm
03:57 15.0 °C 15.0 °C 1007.0 hPa SW 9.7 km/h 21.2 km/h 96 % 0.0 mm
04:02 15.0 °C 15.0 °C 1007.0 hPa SSW 19.1 km/h 20.6 km/h 96 % 0.0 mm
04:07 15.0 °C 15.0 °C 1007.0 hPa SW 8.7 km/h 20.6 km/h 96 % 0.0 mm
04:12 15.0 °C 15.0 °C 1007.0 hPa SW 9.3 km/h 19.1 km/h 96 % 0.0 mm
04:17 15.0 °C 15.0 °C 1007.0 hPa SW 14.0 km/h 16.9 km/h 96 % 0.0 mm
04:22 15.0 °C 15.0 °C 1007.0 hPa SW 14.0 km/h 21.9 km/h 96 % 0.0 mm
04:27 15.0 °C 15.0 °C 1007.0 hPa SSW 12.6 km/h 21.9 km/h 96 % 0.0 mm
04:32 15.0 °C 15.0 °C 1007.0 hPa SW 18.3 km/h 20.1 km/h 96 % 0.0 mm
04:37 15.1 °C 15.0 °C 1007.0 hPa South 9.3 km/h 20.1 km/h 96 % 0.0 mm
04:42 15.1 °C 15.0 °C 1007.0 hPa SW 16.6 km/h 19.1 km/h 96 % 0.0 mm
04:47 15.1 °C 15.0 °C 1007.0 hPa SW 14.8 km/h 20.9 km/h 96 % 0.0 mm
04:52 15.1 °C 14.0 °C 1007.0 hPa WSW 12.2 km/h 20.9 km/h 95 % 0.0 mm
04:57 15.1 °C 14.0 °C 1007.0 hPa SW 12.6 km/h 21.2 km/h 95 % 0.0 mm
05:02 15.1 °C 14.0 °C 1007.0 hPa SW 17.7 km/h 21.2 km/h 95 % 0.0 mm
05:07 15.2 °C 15.0 °C 1007.0 hPa SW 8.7 km/h 18.0 km/h 95 % 0.0 mm
05:13 15.2 °C 15.0 °C 1007.0 hPa SW 15.8 km/h 18.0 km/h 95 % 0.0 mm
05:18 15.1 °C 14.0 °C 1006.0 hPa SSW 13.0 km/h 18.0 km/h 95 % 0.0 mm
05:19 15.1 °C 14.0 °C 1006.0 hPa SW 12.2 km/h 18.0 km/h 95 % 0.0 mm
05:23 15.1 °C 14.0 °C 1006.0 hPa SW 9.0 km/h 16.9 km/h 95 % 0.0 mm
05:25 15.1 °C 14.0 °C 1006.0 hPa SSW 11.6 km/h 16.9 km/h 95 % 0.0 mm
05:26 15.1 °C 14.0 °C 1006.0 hPa SSW 10.5 km/h 14.0 km/h 95 % 0.0 mm
05:31 15.1 °C 14.0 °C 1006.0 hPa SSW 15.1 km/h 15.1 km/h 95 % 0.0 mm
05:34 15.1 °C 14.0 °C 1006.0 hPa SW 10.5 km/h 15.1 km/h 95 % 0.0 mm
05:39 15.1 °C 14.0 °C 1006.0 hPa SSW 9.0 km/h 16.9 km/h 95 % 0.0 mm
05:44 15.1 °C 14.0 °C 1006.0 hPa SW 15.8 km/h 16.6 km/h 95 % 0.0 mm
05:49 15.2 °C 15.0 °C 1005.0 hPa SSW 7.9 km/h 16.6 km/h 95 % 0.0 mm
05:54 15.2 °C 15.0 °C 1005.0 hPa WSW 16.6 km/h 20.9 km/h 95 % 0.0 mm
05:59 15.2 °C 15.0 °C 1005.0 hPa SW 12.6 km/h 23.0 km/h 95 % 0.0 mm
06:04 15.4 °C 15.0 °C 1005.0 hPa SSW 19.8 km/h 23.0 km/h 95 % 0.0 mm
06:09 15.4 °C 14.0 °C 1005.0 hPa SW 15.4 km/h 20.6 km/h 94 % 0.0 mm
06:14 15.4 °C 14.0 °C 1005.0 hPa SSW 10.1 km/h 23.8 km/h 94 % 0.0 mm
06:19 15.4 °C 14.0 °C 1005.0 hPa SW 15.8 km/h 27.7 km/h 94 % 0.0 mm
06:24 15.6 °C 15.0 °C 1005.0 hPa SW 15.4 km/h 27.7 km/h 94 % 0.0 mm
06:29 15.6 °C 15.0 °C 1005.0 hPa WSW 11.9 km/h 21.9 km/h 94 % 0.0 mm
06:34 15.6 °C 15.0 °C 1005.0 hPa WSW 13.7 km/h 21.2 km/h 94 % 0.0 mm
06:35 15.6 °C 15.0 °C 1005.0 hPa WSW 13.7 km/h 21.2 km/h 94 % 0.0 mm
06:40 15.6 °C 15.0 °C 1005.0 hPa SW 12.2 km/h 21.2 km/h 94 % 0.0 mm
06:45 15.6 °C 15.0 °C 1005.0 hPa SSW 20.6 km/h 20.6 km/h 94 % 0.0 mm
06:50 15.6 °C 15.0 °C 1005.0 hPa SSW 12.6 km/h 20.6 km/h 94 % 0.0 mm
06:55 15.6 °C 15.0 °C 1005.0 hPa WSW 19.5 km/h 20.6 km/h 94 % 0.0 mm
07:00 15.6 °C 15.0 °C 1005.0 hPa SW 12.2 km/h 20.6 km/h 94 % 0.0 mm
07:05 15.6 °C 15.0 °C 1005.0 hPa SW 11.6 km/h 17.7 km/h 94 % 0.0 mm
07:10 15.7 °C 15.0 °C 1005.0 hPa SW 14.0 km/h 20.9 km/h 93 % 0.0 mm
07:15 15.7 °C 15.0 °C 1005.0 hPa SSW 20.6 km/h 20.9 km/h 93 % 0.0 mm
07:20 15.7 °C 15.0 °C 1005.0 hPa SW 15.1 km/h 24.5 km/h 93 % 0.0 mm
07:25 15.7 °C 15.0 °C 1005.0 hPa SSW 23.0 km/h 24.5 km/h 93 % 0.0 mm
07:30 15.7 °C 15.0 °C 1003.9 hPa SSW 13.0 km/h 23.0 km/h 93 % 0.0 mm
07:35 15.7 °C 15.0 °C 1003.9 hPa WSW 12.2 km/h 22.4 km/h 93 % 0.0 mm
07:40 15.7 °C 15.0 °C 1003.9 hPa WSW 24.8 km/h 24.8 km/h 93 % 0.0 mm
07:41 15.7 °C 15.0 °C 1003.9 hPa SSW 14.0 km/h 24.8 km/h 93 % 0.0 mm
07:46 15.7 °C 15.0 °C 1003.9 hPa WSW 27.4 km/h 27.4 km/h 93 % 0.0 mm
07:51 15.7 °C 15.0 °C 1003.9 hPa WSW 19.8 km/h 27.4 km/h 94 % 0.0 mm
07:56 15.7 °C 15.0 °C 1003.9 hPa SSW 22.4 km/h 27.4 km/h 94 % 0.0 mm
08:01 15.7 °C 15.0 °C 1003.9 hPa SSW 9.7 km/h 25.6 km/h 94 % 0.0 mm
08:06 15.7 °C 15.0 °C 1003.9 hPa WSW 12.2 km/h 20.6 km/h 94 % 0.0 mm
08:11 15.7 °C 15.0 °C 1003.9 hPa WSW 17.2 km/h 20.6 km/h 94 % 0.0 mm
08:16 15.7 °C 15.0 °C 1003.9 hPa SW 10.1 km/h 20.1 km/h 94 % 0.0 mm
08:21 15.7 °C 15.0 °C 1003.9 hPa WSW 21.2 km/h 21.2 km/h 94 % 0.0 mm
08:26 15.4 °C 15.0 °C 1003.9 hPa WSW 18.0 km/h 21.2 km/h 95 % 0.0 mm
08:31 15.4 °C 15.0 °C 1003.9 hPa SW 11.9 km/h 18.0 km/h 95 % 0.0 mm
08:36 15.2 °C 15.0 °C 1003.9 hPa WSW 11.6 km/h 11.9 km/h 96 % 0.0 mm
08:41 15.2 °C 15.0 °C 1003.9 hPa WSW 6.1 km/h 11.9 km/h 96 % 0.0 mm
08:46 15.2 °C 15.0 °C 1005.0 hPa SW 6.4 km/h 11.9 km/h 96 % 0.0 mm
08:51 15.2 °C 15.0 °C 1005.0 hPa SW 6.4 km/h 11.9 km/h 96 % 0.3 mm
08:56 15.2 °C 15.0 °C 1005.0 hPa WSW 9.7 km/h 9.7 km/h 97 % 0.5 mm
09:01 15.2 °C 15.0 °C 1003.9 hPa WSW 9.7 km/h 9.7 km/h 98 % 0.8 mm
09:06 15.2 °C 15.0 °C 1003.9 hPa South 7.9 km/h 9.7 km/h 98 % 1.3 mm
09:11 15.2 °C 15.0 °C 1003.9 hPa South 7.9 km/h 9.7 km/h 98 % 1.3 mm
09:16 15.2 °C 15.0 °C 1003.9 hPa South 7.9 km/h 9.7 km/h 98 % 1.3 mm
09:22 15.2 °C 15.0 °C 1003.9 hPa South 7.9 km/h 9.7 km/h 98 % 1.3 mm
09:27 15.2 °C 15.0 °C 1003.9 hPa SSW 11.6 km/h 11.6 km/h 98 % 1.3 mm
09:32 15.3 °C 15.0 °C 1002.9 hPa SSW 11.6 km/h 11.6 km/h 98 % 1.5 mm
09:37 15.3 °C 15.0 °C 1002.9 hPa SSW 11.6 km/h 11.6 km/h 98 % 1.5 mm
09:42 15.4 °C 15.0 °C 1002.9 hPa SSW 11.6 km/h 11.6 km/h 98 % 1.5 mm
09:47 15.4 °C 15.0 °C 1002.9 hPa SSW 11.6 km/h 11.6 km/h 98 % 1.3 mm
09:52 15.4 °C 15.0 °C 1002.9 hPa SSW 11.6 km/h 11.6 km/h 98 % 1.3 mm
09:57 15.4 °C 15.0 °C 1002.9 hPa SSW 14.0 km/h 14.0 km/h 98 % 0.8 mm
10:02 15.4 °C 15.0 °C 1002.9 hPa SSW 14.0 km/h 14.0 km/h 98 % 0.5 mm
10:07 15.4 °C 15.0 °C 1002.9 hPa SSW 14.0 km/h 14.0 km/h 98 % 0.3 mm
10:12 15.4 °C 15.0 °C 1002.9 hPa SSW 14.0 km/h 14.0 km/h 98 % 0.3 mm
10:17 15.4 °C 15.0 °C 1002.9 hPa SSW 14.0 km/h 14.0 km/h 98 % 0.5 mm
10:22 15.4 °C 15.0 °C 1002.9 hPa SSW 14.0 km/h 14.0 km/h 98 % 0.5 mm
10:27 15.4 °C 15.0 °C 1002.9 hPa SSW 14.0 km/h 14.0 km/h 98 % 0.5 mm
10:32 15.5 °C 16.0 °C 1002.9 hPa SSW 14.0 km/h 14.0 km/h 98 % 0.3 mm
10:37 15.5 °C 16.0 °C 1002.9 hPa SSW 14.0 km/h 14.0 km/h 98 % 0.3 mm
10:42 15.7 °C 16.0 °C 1002.9 hPa SSW 14.0 km/h 14.0 km/h 98 % 0.3 mm
10:47 15.7 °C 16.0 °C 1002.9 hPa SW 12.6 km/h 12.6 km/h 98 % 0.3 mm
10:52 15.7 °C 16.0 °C 1002.9 hPa SSW 9.0 km/h 12.6 km/h 98 % 0.3 mm
10:57 15.7 °C 16.0 °C 1002.9 hPa SSW 9.0 km/h 9.3 km/h 98 % 0.3 mm
11:02 15.7 °C 16.0 °C 1001.9 hPa SSW 9.0 km/h 14.8 km/h 98 % 0.3 mm
11:07 15.8 °C 16.0 °C 1001.9 hPa WSW 6.1 km/h 15.1 km/h 98 % 0.5 mm
11:12 15.8 °C 16.0 °C 1001.9 hPa SSW 10.1 km/h 15.1 km/h 98 % 0.3 mm
11:17 15.8 °C 16.0 °C 1002.9 hPa WSW 8.7 km/h 20.9 km/h 98 % 0.3 mm
11:22 15.8 °C 16.0 °C 1002.9 hPa SSW 10.5 km/h 20.9 km/h 98 % 0.3 mm
11:27 16.4 °C 16.0 °C 1002.9 hPa Calm   12.6 km/h 98 % 0.3 mm
11:32 16.4 °C 16.0 °C 1002.9 hPa SW 13.0 km/h 14.0 km/h 97 % 0.3 mm
11:37 16.4 °C 16.0 °C 1002.9 hPa SSW 13.7 km/h 15.4 km/h 97 % 0.3 mm
11:42 16.5 °C 16.0 °C 1002.9 hPa WSW 13.7 km/h 15.4 km/h 97 % 0.3 mm
11:47 16.5 °C 16.0 °C 1002.9 hPa SW 9.3 km/h 20.6 km/h 97 % 0.3 mm
11:52 16.5 °C 16.0 °C 1002.9 hPa SSW 13.0 km/h 23.0 km/h 97 % 0.3 mm
11:57 16.8 °C 16.0 °C 1002.9 hPa WSW 7.9 km/h 23.0 km/h 97 % 0.3 mm
12:02 17.1 °C 17.0 °C 1002.9 hPa SSW 9.3 km/h 13.0 km/h 97 % 0.3 mm
12:07 17.1 °C 17.0 °C 1002.9 hPa SSW 13.7 km/h 27.4 km/h 97 % 0.0 mm
12:12 17.0 °C 17.0 °C 1002.9 hPa SSW 25.6 km/h 27.4 km/h 96 % 0.0 mm
12:17 17.0 °C 17.0 °C 1001.9 hPa West 12.2 km/h 25.6 km/h 96 % 0.0 mm
12:22 16.9 °C 17.0 °C 1001.9 hPa SSW 12.2 km/h 16.9 km/h 96 % 0.0 mm
12:27 16.8 °C 16.0 °C 1001.9 hPa SSW 5.8 km/h 17.2 km/h 96 % 0.0 mm
12:32 16.7 °C 16.0 °C 1002.9 hPa SSW 10.1 km/h 17.2 km/h 96 % 0.0 mm
12:37 16.6 °C 16.0 °C 1002.9 hPa SSW 12.2 km/h 15.1 km/h 96 % 0.0 mm
12:42 16.5 °C 16.0 °C 1002.9 hPa SSW 10.5 km/h 12.2 km/h 96 % 0.0 mm
12:47 16.5 °C 16.0 °C 1001.9 hPa SSW 10.5 km/h 12.2 km/h 97 % 0.3 mm
12:58 16.4 °C 16.0 °C 1001.9 hPa WSW 14.0 km/h 14.0 km/h 97 % 0.3 mm
13:03 16.4 °C 16.0 °C 1001.9 hPa WSW 14.0 km/h 14.0 km/h 97 % 0.3 mm
13:08 16.4 °C 16.0 °C 1001.9 hPa WSW 14.0 km/h 14.0 km/h 97 % 0.3 mm
13:13 16.5 °C 16.0 °C 1001.9 hPa SSW 15.4 km/h 15.4 km/h 97 % 0.3 mm
13:18 16.6 °C 16.0 °C 1001.9 hPa WSW 12.6 km/h 15.4 km/h 97 % 0.3 mm
13:23 16.7 °C 16.0 °C 1001.9 hPa SSW 10.5 km/h 20.1 km/h 97 % 0.3 mm
13:28 16.8 °C 16.0 °C 1001.9 hPa WSW 16.9 km/h 20.1 km/h 97 % 0.3 mm
13:33 16.9 °C 17.0 °C 1001.9 hPa WSW 17.7 km/h 22.4 km/h 97 % 0.8 mm
13:38 16.9 °C 17.0 °C 1001.9 hPa WSW 21.2 km/h 22.4 km/h 96 % 0.8 mm
13:43 17.0 °C 17.0 °C 1001.9 hPa WSW 14.0 km/h 21.2 km/h 96 % 0.3 mm
13:48 17.0 °C 17.0 °C 1001.9 hPa WSW 17.7 km/h 21.2 km/h 96 % 0.3 mm
13:53 17.0 °C 17.0 °C 1001.9 hPa West 12.6 km/h 20.9 km/h 96 % 0.3 mm
13:58 17.0 °C 17.0 °C 1001.9 hPa SW 7.9 km/h 20.6 km/h 96 % 0.3 mm
14:03 17.0 °C 16.0 °C 1001.9 hPa West 11.6 km/h 21.2 km/h 95 % 0.3 mm
14:08 17.0 °C 16.0 °C 1001.9 hPa West 14.0 km/h 27.0 km/h 95 % 0.3 mm
14:13 17.0 °C 16.0 °C 1001.9 hPa WSW 10.1 km/h 27.0 km/h 95 % 0.3 mm
14:18 17.0 °C 16.0 °C 1001.9 hPa WSW 12.6 km/h 16.6 km/h 95 % 0.3 mm
14:23 17.0 °C 16.0 °C 1001.9 hPa WSW 14.3 km/h 23.8 km/h 95 % 0.3 mm
14:29 17.0 °C 16.0 °C 1001.9 hPa SW 9.7 km/h 23.8 km/h 95 % 0.0 mm
14:34 17.0 °C 16.0 °C 1001.9 hPa WSW 16.9 km/h 21.2 km/h 95 % 0.0 mm
14:39 17.0 °C 16.0 °C 1001.9 hPa WSW 12.6 km/h 21.2 km/h 94 % 0.0 mm
14:44 17.0 °C 16.0 °C 1001.9 hPa SSW 12.6 km/h 17.2 km/h 94 % 0.0 mm
14:49 17.0 °C 16.0 °C 1001.9 hPa West 16.3 km/h 24.8 km/h 94 % 0.0 mm
14:54 16.9 °C 16.0 °C 1001.9 hPa WSW 9.0 km/h 24.8 km/h 94 % 0.0 mm
14:56 16.9 °C 16.0 °C 1001.9 hPa SSW 11.9 km/h 24.8 km/h 94 % 0.0 mm
15:01 16.9 °C 16.0 °C 1000.9 hPa SSW 11.9 km/h 24.8 km/h 94 % 0.0 mm
15:06 16.8 °C 16.0 °C 1000.9 hPa WSW 11.6 km/h 12.2 km/h 95 % 0.0 mm
15:11 16.8 °C 16.0 °C 1000.9 hPa SSW 14.0 km/h 14.0 km/h 95 % 0.0 mm
15:16 16.8 °C 16.0 °C 999.9 hPa SSW 14.0 km/h 14.0 km/h 95 % 0.3 mm
15:21 16.8 °C 16.0 °C 999.9 hPa SSW 14.0 km/h 14.0 km/h 95 % 0.3 mm
15:26 16.7 °C 16.0 °C 999.9 hPa SSW 14.0 km/h 14.0 km/h 95 % 0.3 mm
15:31 16.7 °C 16.0 °C 1000.9 hPa SSW 14.0 km/h 14.0 km/h 95 % 0.3 mm
15:36 16.7 °C 16.0 °C 1000.9 hPa SSW 14.0 km/h 14.0 km/h 96 % 0.3 mm
15:41 16.7 °C 16.0 °C 1000.9 hPa SSW 14.0 km/h 14.0 km/h 96 % 0.3 mm
15:46 16.7 °C 16.0 °C 1000.9 hPa SW 9.3 km/h 9.3 km/h 96 % 0.5 mm
15:51 16.6 °C 16.0 °C 1000.9 hPa SW 9.3 km/h 9.3 km/h 96 % 0.5 mm
15:56 16.6 °C 16.0 °C 1000.9 hPa SW 9.3 km/h 9.3 km/h 96 % 0.5 mm
16:01 16.5 °C 16.0 °C 1000.9 hPa SW 9.3 km/h 9.3 km/h 96 % 0.5 mm
16:06 16.5 °C 16.0 °C 1000.9 hPa SW 9.3 km/h 9.3 km/h 96 % 0.8 mm
16:11 16.4 °C 16.0 °C 1000.9 hPa SW 9.3 km/h 9.3 km/h 96 % 0.8 mm
16:17 16.4 °C 16.0 °C 1000.9 hPa SSW 10.1 km/h 10.1 km/h 96 % 0.5 mm
16:22 16.4 °C 16.0 °C 1000.9 hPa WSW 9.0 km/h 10.1 km/h 96 % 0.5 mm
16:27 16.4 °C 16.0 °C 1000.9 hPa SW 9.7 km/h 9.7 km/h 97 % 0.5 mm
16:32 16.4 °C 16.0 °C 1000.9 hPa SW 9.7 km/h 9.7 km/h 97 % 0.8 mm
16:37 16.3 °C 16.0 °C 1000.9 hPa SW 9.7 km/h 9.7 km/h 97 % 1.3 mm
16:42 16.1 °C 16.0 °C 1000.9 hPa SW 13.7 km/h 13.7 km/h 97 % 2.5 mm
16:47 16.1 °C 16.0 °C 1000.9 hPa SSW 12.6 km/h 13.7 km/h 97 % 2.3 mm
16:52 16.1 °C 16.0 °C 1000.9 hPa SSW 12.6 km/h 13.7 km/h 97 % 2.3 mm
16:57 16.2 °C 16.0 °C 1000.9 hPa WSW 16.9 km/h 16.9 km/h 97 % 2.5 mm
17:02 16.3 °C 16.0 °C 999.9 hPa SW 21.2 km/h 21.2 km/h 97 % 2.5 mm
17:07 16.3 °C 16.0 °C 999.9 hPa SSW 13.0 km/h 21.2 km/h 97 % 2.3 mm
17:12 16.3 °C 16.0 °C 999.9 hPa SSW 13.0 km/h 13.0 km/h 97 % 2.5 mm
17:17 16.3 °C 16.0 °C 999.9 hPa SSW 13.0 km/h 13.0 km/h 97 % 2.5 mm
17:22 16.2 °C 16.0 °C 999.9 hPa SSW 13.0 km/h 13.0 km/h 97 % 2.5 mm
17:27 16.1 °C 16.0 °C 999.9 hPa SSW 13.0 km/h 13.0 km/h 97 % 2.5 mm
17:32 16.1 °C 16.0 °C 998.9 hPa SSW 15.8 km/h 15.8 km/h 97 % 2.3 mm
17:37 16.0 °C 16.0 °C 998.9 hPa West 9.7 km/h 15.8 km/h 97 % 1.8 mm
17:42 16.0 °C 16.0 °C 998.9 hPa SW 13.7 km/h 15.8 km/h 97 % 0.5 mm
17:47 15.9 °C 16.0 °C 998.9 hPa SW 11.9 km/h 13.7 km/h 98 % 0.5 mm
17:52 15.9 °C 16.0 °C 998.9 hPa SSW 8.7 km/h 13.7 km/h 98 % 0.8 mm
17:57 16.0 °C 16.0 °C 998.9 hPa SSW 8.7 km/h 11.9 km/h 97 % 0.5 mm
18:02 16.0 °C 16.0 °C 998.9 hPa SSW 8.7 km/h 11.9 km/h 97 % 0.5 mm
18:07 16.0 °C 16.0 °C 998.9 hPa SSW 8.7 km/h 11.9 km/h 97 % 0.5 mm
18:12 15.9 °C 16.0 °C 998.9 hPa SSW 8.7 km/h 11.9 km/h 98 % 0.3 mm
18:17 15.9 °C 16.0 °C 998.9 hPa SSW 15.8 km/h 15.8 km/h 98 % 0.3 mm
18:22 15.9 °C 16.0 °C 998.9 hPa SSW 15.8 km/h 15.8 km/h 97 % 0.3 mm
18:27 15.8 °C 15.0 °C 998.9 hPa West 14.0 km/h 15.8 km/h 97 % 1.0 mm
18:32 15.8 °C 15.0 °C 998.9 hPa WSW 16.3 km/h 16.3 km/h 97 % 1.5 mm
18:37 15.8 °C 16.0 °C 998.9 hPa WSW 16.3 km/h 16.3 km/h 98 % 1.5 mm
18:42 15.7 °C 16.0 °C 998.9 hPa WSW 16.3 km/h 16.3 km/h 98 % 1.5 mm
18:47 15.8 °C 16.0 °C 998.9 hPa WSW 16.3 km/h 16.3 km/h 98 % 1.5 mm
18:52 15.8 °C 16.0 °C 998.9 hPa WSW 13.7 km/h 16.3 km/h 98 % 1.5 mm
18:57 15.8 °C 16.0 °C 998.9 hPa WSW 13.7 km/h 16.3 km/h 98 % 1.5 mm
19:02 15.7 °C 16.0 °C 998.9 hPa WSW 9.0 km/h 9.0 km/h 98 % 1.5 mm
19:07 15.7 °C 16.0 °C 998.9 hPa WSW 9.0 km/h 9.0 km/h 98 % 1.5 mm
19:12 15.6 °C 16.0 °C 998.9 hPa WSW 9.0 km/h 9.0 km/h 98 % 1.8 mm
19:17 15.6 °C 16.0 °C 997.9 hPa WSW 9.0 km/h 9.0 km/h 98 % 1.8 mm
19:22 15.5 °C 16.0 °C 997.9 hPa WSW 9.0 km/h 9.0 km/h 98 % 1.8 mm
19:28 15.5 °C 15.0 °C 997.9 hPa SSW 11.9 km/h 11.9 km/h 97 % 1.3 mm
19:33 15.4 °C 15.0 °C 998.9 hPa SSW 11.9 km/h 11.9 km/h 97 % 0.8 mm
19:38 15.2 °C 15.0 °C 998.9 hPa SSW 9.0 km/h 11.9 km/h 97 % 0.8 mm
19:43 15.2 °C 15.0 °C 998.9 hPa SSW 6.4 km/h 10.5 km/h 97 % 0.8 mm
19:48 15.1 °C 15.0 °C 997.9 hPa WSW 10.5 km/h 11.6 km/h 97 % 0.5 mm
19:53 15.1 °C 15.0 °C 997.9 hPa WSW 10.1 km/h 13.7 km/h 97 % 0.5 mm
19:58 15.0 °C 15.0 °C 997.9 hPa WSW 10.5 km/h 13.7 km/h 97 % 0.5 mm
20:03 14.9 °C 15.0 °C 997.9 hPa SW 9.0 km/h 12.6 km/h 98 % 0.5 mm
20:08 14.9 °C 15.0 °C 997.9 hPa WSW 9.3 km/h 10.5 km/h 98 % 0.5 mm
20:13 14.8 °C 15.0 °C 997.9 hPa SSW 10.1 km/h 10.1 km/h 98 % 0.3 mm
20:18 14.7 °C 15.0 °C 997.9 hPa SW 12.6 km/h 12.6 km/h 98 % 0.3 mm
20:23 14.7 °C 15.0 °C 997.9 hPa SW 10.5 km/h 12.6 km/h 98 % 0.0 mm
20:28 14.5 °C 15.0 °C 997.9 hPa WSW 7.9 km/h 12.6 km/h 98 % 0.0 mm
20:33 14.4 °C 14.0 °C 997.9 hPa SSW 16.6 km/h 16.6 km/h 97 % 0.0 mm
20:38 14.3 °C 14.0 °C 997.9 hPa WSW 10.1 km/h 16.6 km/h 97 % 0.0 mm
20:44 14.1 °C 14.0 °C 997.9 hPa WSW 10.1 km/h 12.2 km/h 97 % 0.0 mm
20:49 14.1 °C 14.0 °C 998.9 hPa WSW 11.1 km/h 12.2 km/h 97 % 0.0 mm
20:54 14.0 °C 14.0 °C 998.9 hPa SW 5.0 km/h 14.3 km/h 97 % 0.0 mm
20:59 14.0 °C 14.0 °C 998.9 hPa WSW 8.7 km/h 14.3 km/h 97 % 0.0 mm
21:04 14.0 °C 14.0 °C 998.9 hPa WSW 7.9 km/h 13.0 km/h 97 % 0.0 mm
21:09 14.0 °C 14.0 °C 998.9 hPa WSW 8.7 km/h 11.1 km/h 97 % 0.0 mm
21:14 13.9 °C 14.0 °C 998.9 hPa WSW 6.1 km/h 10.1 km/h 98 % 0.0 mm
21:19 13.9 °C 14.0 °C 997.9 hPa SW 6.1 km/h 10.1 km/h 98 % 0.0 mm
21:24 13.9 °C 14.0 °C 997.9 hPa SSW 8.7 km/h 13.0 km/h 98 % 0.0 mm
21:29 13.9 °C 14.0 °C 997.9 hPa SW 7.9 km/h 13.0 km/h 98 % 0.0 mm
21:34 13.9 °C 14.0 °C 997.9 hPa SW 8.7 km/h 10.1 km/h 98 % 0.0 mm
21:39 13.9 °C 14.0 °C 997.9 hPa Calm   10.1 km/h 98 % 0.0 mm
21:44 13.9 °C 14.0 °C 997.9 hPa SSW 8.7 km/h 11.6 km/h 98 % 0.0 mm
21:49 14.0 °C 14.0 °C 997.9 hPa SW 8.7 km/h 11.6 km/h 98 % 0.0 mm
21:54 14.0 °C 14.0 °C 997.9 hPa SSW 9.0 km/h 11.6 km/h 98 % 0.0 mm
21:59 14.0 °C 14.0 °C 997.9 hPa Calm   11.6 km/h 98 % 0.0 mm
22:04 14.0 °C 14.0 °C 997.9 hPa SSW 4.3 km/h 11.6 km/h 98 % 0.0 mm
22:09 14.0 °C 14.0 °C 997.9 hPa Calm   7.9 km/h 98 % 0.0 mm
22:14 14.0 °C 14.0 °C 997.9 hPa SW 7.6 km/h 7.6 km/h 98 % 0.0 mm
22:19 14.0 °C 14.0 °C 997.9 hPa SW 6.1 km/h 9.0 km/h 98 % 0.0 mm
22:24 14.0 °C 14.0 °C 997.9 hPa SW 6.4 km/h 9.0 km/h 98 % 0.0 mm
22:29 14.0 °C 14.0 °C 997.9 hPa WSW 4.7 km/h 9.7 km/h 98 % 0.0 mm
22:34 14.0 °C 14.0 °C 997.9 hPa SSW 11.6 km/h 11.6 km/h 98 % 0.0 mm
22:39 14.0 °C 14.0 °C 997.9 hPa SW 10.8 km/h 11.6 km/h 98 % 0.0 mm
22:44 14.0 °C 14.0 °C 997.9 hPa Calm   10.8 km/h 98 % 0.0 mm
22:49 14.0 °C 14.0 °C 997.9 hPa Calm   7.9 km/h 98 % 0.0 mm
22:54 14.0 °C 14.0 °C 997.9 hPa SW 5.5 km/h 9.3 km/h 98 % 0.0 mm
22:59 14.1 °C 14.0 °C 997.9 hPa Calm   9.7 km/h 98 % 0.0 mm
23:04 14.1 °C 14.0 °C 996.8 hPa WSW 6.1 km/h 9.7 km/h 98 % 0.0 mm
23:05 14.1 °C 14.0 °C 996.8 hPa Calm   7.9 km/h 98 % 0.0 mm
23:10 14.1 °C 14.0 °C 996.8 hPa Calm   7.9 km/h 98 % 0.0 mm
23:15 14.1 °C 14.0 °C 996.8 hPa Calm   8.7 km/h 98 % 0.0 mm
23:20 14.2 °C 14.0 °C 996.8 hPa Calm   10.5 km/h 98 % 0.0 mm
23:25 14.1 °C 14.0 °C 996.8 hPa SW 7.6 km/h 10.5 km/h 98 % 0.0 mm
23:30 14.2 °C 14.0 °C 996.8 hPa WSW 5.8 km/h 9.3 km/h 98 % 0.0 mm
23:35 14.1 °C 14.0 °C 996.8 hPa SW 7.9 km/h 13.7 km/h 98 % 0.0 mm
23:40 14.2 °C 14.0 °C 996.8 hPa SSW 6.1 km/h 13.7 km/h 98 % 0.0 mm
23:45 14.2 °C 14.0 °C 996.2 hPa SSE 1.4 km/h 9.7 km/h 98 % 0.0 mm
23:50 14.2 °C 14.0 °C 996.2 hPa Calm   9.7 km/h 98 % 0.0 mm
23:55 14.1 °C 14.0 °C 996.2 hPa WSW 6.9 km/h 6.9 km/h 98 % 0.0 mm
Le Gheer Warneton
Courtoisie de Weather Underground - 2.25 mb

Mise a jour : 17/12/2017 22:38:11
Généré par Cumulus 1.9.4 (1099)